sat.trackr.live / text

‹ back to catalog

STARLINK-34342

NORAD 64271 · 2025-120R

PAYLOAD ACTIVE UNKNOWN

§ Identity

Operator
Country
US
Launch date
2025-06-04
Launch site
AFWTR
Launch vehicle
Mass (kg)
RCS (m²)

Purposes: comms

External: N2YO · Heavens-Above · Gunter

§ Orbital elements

Epoch: 2026-09-20T02:06:40.939776Z

Period
93.85 min
Inclination
53.1529°
Eccentricity
0.0002775
Mean motion
15.34409233 rev/d
Perigee alt
460.8 km
Apogee alt
464.6 km
Semi-major
6,840.8 km
B*
4.1370e-4
RAAN
291.3049°
Arg perigee
93.5669°
Mean anomaly
266.5651°
Rev number
7,366

§ Raw data

STARLINK-343421 64271U 25120R   26263.08797384  .00013631  00000+0  41370-3 0  99962 64271  53.1529 291.3049 0002775  93.5669 266.5651 15.34409233 73661

JSON: /api/v1/satellites/64271 · /tle

For live sub-satellite position, see the globe view (requires WebGL).

§ Visibility from observer

Set your observer location to see the next 7 days of passes ≥ 10°. The values pass through the URL so the page stays shareable.

No JS? Fill the form by hand. The geolocation button needs JavaScript.